Location: Kunchanapalle
(16.4623°N, 80.6176°E)
Time: 18:46:13
(UTC+00:00)

GPS 2-12 Rocket1 - Pass Details

Date: 13 August 2020
Orbit: 586 x 652 km, 20.0° (Epoch: 19 September)

Event Time Altitude Azimuth Distance (km) Brightness Sun altitude
Exits shadow 22:47:27 62° 274° (W) 714 3.0 -22.1°
Maximum altitude 22:48:13 82° 348° (NNW) 644 3.0 -21.9°
Drops below altitude 10° 22:53:00 10° 77° (ENE) 2,031 6.8 -20.9°
Sets 22:55:24 0° 78° (ENE) 2,945 8.0 -20.4°
